"Pseudo-MPEC" for C2ULA62

Created 2020 May 24 11:07:05 UT using Find_Orb

Click here for an explanation of pseudo-MPECs

 
 Astrometry: 
     C2ULA62  C2020 05 22.32262 15 34 49.43 +05 43 54.3    ~5M8b 21.1 GVNEOCPG96
     C2ULA62  C2020 05 22.32787 15 34 49.66 +05 43 52.9    ~5M8b 21.2 GVNEOCPG96
     C2ULA62  C2020 05 22.33314 15 34 49.83 +05 43 51.7    ~5M8b 21.2 GVNEOCPG96
     C2ULA62  C2020 05 22.33837 15 34 50.01 +05 43 49.5    ~5M8b 21.2 GVNEOCPG96
     C2ULA62  C2020 05 22.40937 15 34 52.82 +05 43 27.5    ~5MAb 21.3 GVNEOCPI52
     C2ULA62  C2020 05 22.41486 15 34 53.09 +05 43 26.8    ~5MAb 21.3 GVNEOCPI52
     C2ULA62  C2020 05 22.42036 15 34 53.37 +05 43 24.0    ~5MAb 21.2 GVNEOCPI52
     C2ULA62  C2020 05 22.42586 15 34 53.65 +05 43 22.5    ~5MAb 21.3 GVNEOCPI52
     C2ULA62  C2020 05 23.25660 15 36 15.28 +05 38 59.5    ~5N6b 20.9 GVNEOCPV06
     C2ULA62  C2020 05 23.25996 15 36 15.42 +05 38 58.2    ~5N6b 20.9 GVNEOCPV06
     C2ULA62  C2020 05 23.26144 15 36 15.49 +05 38 58.0    ~5N6b 21.0 GVNEOCPV06
     C2ULA62  C2020 05 23.26480 15 36 15.61 +05 38 56.5    ~5N6b 21.2 GVNEOCPV06
     C2ULA62 !C2020 05 23!D,0?_Nc^-5llyfL5;6N`\U]%=hY/#5.0yMj^U.w=Ci/C052KKa1673
     C2ULA62 !C2020 05 23-pIAstrometryg37wredacted;o5_%42IMBWJ_!mHxW^0\/qHqBq673
     C2ULA62  C2020 05 24.32158 15 37 59.09 +05 31 24.1    ~5O8M 20.9 GVNEOCPI52
     C2ULA62  C2020 05 24.32552 15 37 59.31 +05 31 22.0    ~5O8M 21.0 GVNEOCPI52
     C2ULA62  C2020 05 24.32947 15 37 59.48 +05 31 19.5    ~5O8M 21.5 GVNEOCPI52
     C2ULA62  C2020 05 24.33266 15 37 59.67 +05 31 18.1    ~5O8M 20.6 GVNEOCPI52
     C2ULA62 !C2020 05 248/.8`#(Eclick\pX,wTc!9Iay'ccxe4t\L*DjHF6^qHjnV.Jhere673
     C2ULA62 !C2020 05 24oLs0CSdJpM[awq3[+KR;#=GKforsUuexplanationB[HS$=(LD+b673

Station data:
(673) Table Mountain Observatory, Wrightwood  (N34.381488 W117.682170)
   US/California.  Observer W. M. Owen Jr. 0.61-m f/16 reflector + CCD.
(G96) Mt. Lemmon Survey  (N32.442754 W110.788720)  US/Arizona.  Observers T.
   A. Pruyne, B. M. Africano, E. J. Christensen, G. A. Farneth, D. C. Fuls,
   A. R. Gibbs, A. D. Grauer, H. Gröller, J. A. Johnson, R. A. Kowalski, S.
   M. Larson, G. J. Leonard, D. Rankin, R. L. Seaman, F. C. Shelly. 1.5-m
   reflector + 10K CCD.
(I52) Steward Observatory, Mt. Lemmon Station  (N32.442547 W110.788920)
   US/Arizona.  Observers T. A. Pruyne, B. M. Africano, E. J. Christensen, G.
   A. Farneth, D. C. Fuls, A. R. Gibbs, A. D. Grauer, H. Gröller, J. A.
   Johnson, R. A. Kowalski, S. M. Larson, G. J. Leonard, D. Rankin, R. L.
   Seaman, F. C. Shelly. 1.0-m reflector + CCD.
(V06) Catalina Sky Survey-Kuiper  (N32.416847 W110.732550)  US/Arizona.
   Observers T. A. Pruyne, B. M. Africano, E. J. Christensen, G. A. Farneth,
   D. C. Fuls, A. R. Gibbs, A. D. Grauer, H. Gröller, J. A. Johnson, R. A.
   Kowalski, S. M. Larson, G. J. Leonard, D. Rankin, R. L. Seaman, F. C.
   Shelly. 1.55-m reflector + CCD.

Orbital elements:  C2ULA62
   Perihelion 2020 Jul 7.466884 +/- 0.0645 TT = 11:12:18 (JD 2459037.966884)
Epoch 2020 May 24.0 TT = JDT 2458993.5   Earth MOID: 0.0037   Ma: 0.0517
M 332.33728641 +/- 0.12             (J2000 ecliptic)          AutoNEOCP
n   0.62209696 +/- 0.00195          Peri.  212.10540 +/- 0.17
a   1.35903505 +/- 0.00284          Node    78.13268 +/- 0.08
e   0.2728513 +/- 0.00139           Incl.    4.61201 +/- 0.015
P   1.58/578.68d           H 26.3   G  0.15   U  8.6  
q 0.98822046 +/- 0.000406    Q 1.72984965 +/- 0.00549
From 20 observations 2020 May 22-24; mean residual 0".37
Residuals in arcseconds: 
200522 G96  .13-  .17+    200522 I52  .03-  .33+    200524 I52  .53+  .20+    
200522 G96  .63+  .26+    200523 V06  .31+  .27+    200524 I52  .69+  .11+    
200522 G96  .45+  .58+    200523 V06  .30+  .15+    200524 I52  .08+  .36-    
200522 G96  .41+  .11-    200523 V06  .43+  .47+    200524 I52  .35+  .11-    
200522 I52  .40-  .12-    200523 V06  .14+  .15+    200524 673  .48+  .02-    
200522 I52  .27-  .98+    200523 673  .40-  .55-    200524 673  .51-  .15+    
200522 I52  .09-  .00     200523 673  .32+  .19+    

Ephemerides (geocentric):
Date (UTC) HH   RA              Dec         delta   r     elong  mag " sig PA
---- -- -- --  -------------   -----------  ------ ------ -----  --- ---- ---
2020 05 24 11  15 38 15.992   +05 31 27.89  .05477 1.0618 152.8 21.3 .748  41
2020 05 24 12  15 38 20.609   +05 31 06.67  .05462 1.0617 152.8 21.3 .774  44
2020 05 24 13  15 38 25.253   +05 30 45.22  .05447 1.0616 152.8 21.3 .804  48
2020 05 24 14  15 38 29.925   +05 30 23.53  .05433 1.0614 152.8 21.3 .838  51
2020 05 24 15  15 38 34.624   +05 30 01.60  .05418 1.0613 152.8 21.3 .876  54
2020 05 24 16  15 38 39.351   +05 29 39.44  .05403 1.0612 152.7 21.3 .918  57
2020 05 24 17  15 38 44.105   +05 29 17.04  .05388 1.0611 152.7 21.2 .964  60
2020 05 24 18  15 38 48.888   +05 28 54.39  .05374 1.0609 152.7 21.2 1.01  63
2020 05 24 19  15 38 53.700   +05 28 31.51  .05359 1.0608 152.7 21.2 1.07  65
2020 05 24 20  15 38 58.540   +05 28 08.37  .05344 1.0607 152.7 21.2 1.13  68
2020 05 24 21  15 39 03.409   +05 27 45.00  .05329 1.0605 152.7 21.2 1.19  70
2020 05 24 22  15 39 08.308   +05 27 21.37  .05315 1.0604 152.7 21.2 1.25  72
2020 05 24 23  15 39 13.235   +05 26 57.49  .05300 1.0603 152.7 21.2 1.32  74
2020 05 25 00  15 39 18.193   +05 26 33.37  .05285 1.0602 152.7 21.2 1.40  76
2020 05 25 01  15 39 23.180   +05 26 08.98  .05270 1.0600 152.7 21.2 1.48  77
2020 05 25 02  15 39 28.198   +05 25 44.35  .05256 1.0599 152.7 21.2 1.56  79
2020 05 25 03  15 39 33.246   +05 25 19.45  .05241 1.0598 152.7 21.2 1.65  80
2020 05 25 04  15 39 38.324   +05 24 54.30  .05226 1.0597 152.7 21.2 1.74  82
2020 05 25 05  15 39 43.434   +05 24 28.89  .05212 1.0595 152.7 21.2 1.83  83
2020 05 25 06  15 39 48.574   +05 24 03.21  .05197 1.0594 152.7 21.2 1.93  84
2020 05 25 07  15 39 53.746   +05 23 37.27  .05182 1.0593 152.7 21.2 2.03  86
2020 05 25 08  15 39 58.950   +05 23 11.06  .05168 1.0591 152.7 21.2 2.14  87
2020 05 25 09  15 40 04.186   +05 22 44.58  .05153 1.0590 152.6 21.2 2.25  88
2020 05 25 10  15 40 09.454   +05 22 17.84  .05138 1.0589 152.6 21.1 2.36  89
2020 05 25 11  15 40 14.754   +05 21 50.82  .05124 1.0588 152.6 21.1 2.48  89
2020 05 25 12  15 40 20.087   +05 21 23.52  .05109 1.0586 152.6 21.1 2.60  90
2020 05 25 13  15 40 25.453   +05 20 55.95  .05094 1.0585 152.6 21.1 2.73  91
2020 05 25 14  15 40 30.853   +05 20 28.10  .05080 1.0584 152.6 21.1 2.86  92
2020 05 25 15  15 40 36.286   +05 19 59.97  .05065 1.0583 152.6 21.1 2.99  92
2020 05 25 16  15 40 41.753   +05 19 31.55  .05050 1.0581 152.6 21.1 3.13  93
2020 05 25 17  15 40 47.255   +05 19 02.86  .05036 1.0580 152.6 21.1 3.27  94
2020 05 25 18  15 40 52.791   +05 18 33.87  .05021 1.0579 152.6 21.1 3.42  94
2020 05 25 19  15 40 58.361   +05 18 04.59  .05006 1.0578 152.6 21.1 3.57  95
2020 05 25 20  15 41 03.967   +05 17 35.03  .04992 1.0576 152.6 21.1 3.73  95
2020 05 25 21  15 41 09.608   +05 17 05.16  .04977 1.0575 152.6 21.1 3.89  96
2020 05 25 22  15 41 15.285   +05 16 35.01  .04963 1.0574 152.6 21.1 4.05  96
2020 05 25 23  15 41 20.997   +05 16 04.55  .04948 1.0573 152.6 21.1 4.22  97
2020 05 26 00  15 41 26.746   +05 15 33.79  .04933 1.0571 152.6 21.1 4.40  97
2020 05 26 01  15 41 32.532   +05 15 02.73  .04919 1.0570 152.6 21.1 4.58  98
2020 05 26 02  15 41 38.355   +05 14 31.37  .04904 1.0569 152.6 21.0 4.76  98
2020 05 26 03  15 41 44.215   +05 13 59.70  .04889 1.0568 152.6 21.0 4.95  98
2020 05 26 04  15 41 50.112   +05 13 27.71  .04875 1.0566 152.6 21.0 5.14  99
2020 05 26 05  15 41 56.048   +05 12 55.42  .04860 1.0565 152.6 21.0 5.34  99
2020 05 26 06  15 42 02.021   +05 12 22.80  .04846 1.0564 152.6 21.0 5.55  99
2020 05 26 07  15 42 08.034   +05 11 49.88  .04831 1.0563 152.6 21.0 5.76 100
2020 05 26 08  15 42 14.085   +05 11 16.63  .04817 1.0561 152.6 21.0 5.97 100
2020 05 26 09  15 42 20.175   +05 10 43.05  .04802 1.0560 152.6 21.0 6.19 100
2020 05 26 10  15 42 26.306   +05 10 09.16  .04787 1.0559 152.6 21.0 6.42 101